Temperature
18 18 18 18 18 18 17 17 16 16 16 16 15 15 15 15 15 15 15 15 15 15 15 14 14 14 14 14 14 14 14 14 14 14 14 14 14 14 14 14 13 13 13
18 18 18 18 18 18 17 17 16 16 16 16 15 15 15 15 15 15 14 14 14 14 14 14 14 14 14 14 14 14 14 14 14 14 14 13 13 13 13 13 13 13 13
18 18 18 18 17 17 17 17 16 16 16 16 15 15 15 15 15 14 14 14 14 14 14 14 14 14 14 14 13 13 13 13 13 13 13 13 13 13 13 13 13 13 13
18 18 18 17 17 17 17 17 16 16 16 15 15 15 15 15 14 14 14 14 14 14 14 14 13 13 13 13 13 13 13 13 13 13 13 13 13 13 12 12 13 13 13
18 18 18 17 17 17 17 16 16 16 16 15 15 15 15 14 14 14 13 13 13 13 13 13 13 13 13 13 13 13 13 13 13 13 13 13 13 13 12 12 12 12 12
18 18 18 17 17 17 16 16 16 16 15 15 15 15 15 14 14 14 13 13 13 13 13 13 13 13 13 13 13 12 12 12 12 12 12 12 12 12 12 12 12 12 12
18 18 18 17 17 17 16 16 16 16 15 15 15 15 14 14 14 14 14 13 13 13 13 13 13 12 12 12 12 12 12 12 12 12 12 12 12 12 12 12 12 12 12
18 18 18 18 17 17 16 16 16 16 15 15 15 14 14 14 14 14 13 13 13 13 13 12 12 12 12 12 12 12 12 12 12 12 12 12 12 12 12 12 12 11 11
18 18 18 18 17 17 16 16 16 16 15 15 15 14 14 14 14 13 13 13 13 13 12 12 12 12 12 12 12 12 12 12 12 12 12 12 12 11 11 11 11 11 11
17 18 18 17 17 17 17 16 16 16 15 15 15 14 14 14 13 13 13 13 13 12 12 12 12 12 12 11 11 11 11 11 11 11 11 11 11 11 11 11 11 11 11
17 17 17 17 17 17 16 16 16 15 15 15 14 14 14 13 13 13 13 13 12 12 12 12 12 12 11 11 11 11 11 11 11 11 11 11 11 11 11 11 11 11 11
18 17 17 17 17 16 16 16 15 15 15 14 14 14 14 13 13 13 13 12 12 12 12 12 12 11 11 11 11 11 11 11 11 11 11 11 11 11 10 10 10 10 10
17 17 17 16 16 16 16 16 15 15 15 14 14 14 13 13 13 13 13 12 12 12 12 12 11 11 11 11 11 11 10 10 10 10 10 10 10 10 10 10 10 10 10
17 17 16 16 16 16 16 15 15 15 14 14 14 13 13 13 13 13 12 12 12 12 12 11 11 11 11 11 11 10 10 10 10 10 10 10 10 10 10 10 10 10 9
16 16 16 16 15 15 15 15 15 14 14 14 13 13 13 13 13 12 12 12 12 12 11 11 11 11 11 11 10 10 10 10 10 10 10 10 9 9 9 9 9 9 9
15 15 15 15 15 15 15 14 14 14 14 13 13 13 13 12 12 12 12 12 11 11 11 11 11 11 10 10 10 10 10 10 10 9 9 9 9 9 9 9 9 9 9
15 15 15 15 15 15 14 14 14 14 13 13 13 13 12 12 12 12 12 11 11 11 11 10 10 10 10 10 10 9 9 9 9 9 9 9 9 9 9 9 9 9 9
15 15 15 15 15 14 14 14 13 13 13 13 12 12 12 12 12 12 11 11 11 11 10 10 10 10 10 9 9 9 9 9 9 9 9 9 8 8 8 8 8 8 8
15 15 15 14 14 14 14 13 13 13 12 12 12 12 12 11 11 11 11 11 11 10 10 10 10 9 9 9 9 9 9 9 9 8 8 8 8 8 8 8 8 8 8
15 15 14 14 14 14 13 13 13 12 12 12 12 11 11 11 11 11 11 10 10 10 10 10 9 9 9 9 9 9 8 8 8 8 8 8 8 8 8 8 8 8 8
14 14 14 14 13 13 13 13 12 12 12 11 11 11 11 11 11 10 10 10 10 10 9 9 9 9 9 9 9 8 8 8 8 8 8 8 8 7 7 7 7 7 7
14 14 13 13 13 13 12 12 12 12 11 11 11 11 10 10 10 10 10 10 9 9 9 9 9 9 8 8 8 8 8 8 7 7 7 7 7 7 7 7 7 7 7
13 13 13 13 12 12 12 12 11 11 11 11 10 10 10 10 10 10 9 9 9 9 9 8 8 8 8 8 8 8 7 7 7 7 7 7 7 7 7 7 7 7 7
12 12 12 12 12 11 11 11 11 10 10 10 10 10 10 9 9 9 9 9 8 8 8 8 8 7 7 7 7 7 7 7 7 7 6 6 6 6 6 6 6 6 6
12 12 11 11 11 11 10 10 10 10 10 10 9 9 9 9 9 8 8 8 8 8 7 7 7 7 7 7 7 7 7 6 6 6 6 6 6 6 6 6 6 6 6
11 11 11 11 10 10 10 10 10 9 9 9 9 9 8 8 8 8 8 7 7 7 7 7 7 7 6 6 6 6 6 6 6 6 6 6 6 5 5 5 5 5 5
Wind_Speed
7 7 7 8 8 7 7 7 7 6 5 4 3 3 2 2 2 2 4 6 6 6 6 4 3 4 4 3 3 2 3 2 2 3 3 4 4 3 2 2 2 2 2
5 6 7 8 8 8 7 7 7 7 6 5 4 3 3 2 1 2 3 5 6 5 5 4 3 3 3 4 4 3 2 2 2 2 2 3 4 4 3 2 2 2 2
10 8 8 8 8 8 8 8 7 7 6 6 4 4 3 3 2 2 1 2 4 4 5 5 4 3 3 2 2 2 3 1 2 2 3 2 2 2 3 3 3 2 2
8 8 8 8 9 9 8 8 8 7 6 7 6 6 4 3 2 2 1 1 2 3 4 4 4 3 2 2 1 2 2 2 0 1 1 2 3 2 1 3 3 3 2
10 9 9 9 9 8 8 8 7 7 6 7 7 7 5 3 2 2 2 1 1 2 3 4 3 2 2 2 1 2 2 2 2 1 1 2 2 2 2 1 3 3 2
9 9 9 7 7 7 7 7 8 7 7 7 7 7 7 5 5 3 3 2 1 0 1 3 3 2 2 2 2 2 2 2 2 1 1 2 2 1 2 1 1 2 2
9 9 8 8 8 8 8 8 8 7 7 7 7 6 7 7 7 5 5 3 2 1 2 2 2 2 2 2 2 2 1 2 2 2 1 1 1 2 2 2 1 1 2
8 9 10 10 10 10 9 9 9 7 7 7 7 6 6 5 4 5 5 5 4 4 4 3 2 2 2 2 2 2 1 1 1 1 2 1 1 1 2 2 2 0 1
8 8 8 9 9 11 11 11 10 8 8 7 6 6 6 5 5 5 5 4 4 4 4 4 4 3 3 2 3 2 1 1 1 1 1 1 1 1 1 1 2 3 2
6 7 7 7 8 9 9 9 10 10 8 8 7 6 6 6 6 5 5 5 5 4 4 4 4 3 3 3 3 2 1 1 1 1 1 0 0 1 1 1 1 2 3
6 6 6 7 7 6 7 7 8 7 7 8 7 6 5 5 5 6 6 6 5 5 5 5 5 4 4 3 3 2 2 2 2 1 1 1 1 1 1 1 1 1 2
5 6 6 5 5 5 6 7 7 7 7 7 6 6 5 5 5 5 6 6 6 5 6 6 5 5 5 5 5 4 3 3 3 3 2 3 2 1 1 1 1 1 2
4 4 4 4 5 5 6 6 6 6 6 6 6 5 5 5 5 5 5 5 5 5 5 5 6 6 6 5 5 5 4 4 4 4 4 4 3 3 2 2 2 2 2
4 4 3 4 4 5 6 6 6 5 5 5 6 6 6 6 5 5 5 5 5 5 5 5 6 6 6 6 5 5 5 4 4 4 4 4 5 5 4 4 4 3 2
4 4 4 4 4 4 5 5 5 5 5 6 6 6 6 5 5 5 5 5 4 5 5 4 4 4 5 5 5 5 5 4 4 4 4 5 5 6 5 4 4 4 3
4 4 4 4 4 5 5 5 5 5 5 6 6 6 4 4 5 5 5 4 4 4 3 4 4 4 4 5 6 5 4 4 5 4 4 5 5 6 7 7 7 6 5
4 4 4 5 5 5 5 6 5 4 5 5 5 5 5 5 5 5 5 5 5 4 4 4 4 4 5 6 6 6 4 4 4 5 4 4 4 5 4 5 5 5 6
4 4 4 3 3 3 3 3 3 4 5 4 4 4 5 5 4 4 5 5 5 5 4 4 4 3 4 4 5 4 3 3 4 4 5 5 5 4 4 4 4 4 5
4 4 4 3 3 3 3 3 3 3 4 4 5 5 5 5 4 5 5 4 4 4 4 4 4 4 4 4 5 4 3 3 4 4 4 4 5 5 5 4 4 4 5
2 3 3 3 3 2 3 4 3 3 4 5 5 5 4 5 5 5 4 3 4 4 4 3 4 4 4 4 4 4 2 2 3 2 3 5 5 5 5 5 5 5 5
2 3 3 3 2 2 3 3 3 4 4 3 3 3 4 4 4 3 3 3 3 3 3 3 3 3 4 4 4 3 3 3 2 2 3 3 4 5 5 5 5 6 4
2 3 3 1 1 1 3 3 3 4 2 2 2 3 3 3 2 3 2 3 4 3 3 2 2 2 3 3 3 4 4 3 3 3 3 3 3 3 4 4 5 5 3
1 2 3 1 0 1 2 4 4 2 2 2 2 2 2 2 2 3 3 3 3 3 3 3 2 2 2 3 3 4 4 3 2 2 3 4 3 3 3 3 3 3 2
1 1 2 2 1 2 1 3 3 3 3 3 2 2 2 1 1 1 2 3 3 3 3 3 3 2 2 2 2 1 2 2 1 1 2 2 2 2 2 2 2 2 2
2 2 2 2 3 2 1 2 3 4 3 3 2 2 2 2 1 1 1 2 3 4 4 4 3 3 3 4 3 2 2 2 2 1 1 2 1 2 2 1 1 1 1
2 2 2 2 3 2 2 2 3 4 4 3 2 2 2 2 2 2 1 1 1 1 2 3 3 3 4 4 3 3 2 2 2 2 0 1 1 1 2 1 2 1 1
Wind_Direction
192 172 167 162 156 152 152 151 147 149 135 122 119 116 116 93 79 82 92 92 94 96 92 81 75 72 76 74 67 64 53 31 37 57 25 10 19 32 26 45 88 82 81
169 169 162 159 159 159 159 154 154 152 149 147 148 147 141 129 117 77 81 90 98 101 102 98 95 83 79 67 60 73 74 20 39 96 81 20 3 2 12 17 56 66 69
177 174 165 165 158 161 165 163 161 157 154 146 127 107 81 66 59 51 59 74 101 107 108 113 106 98 94 93 81 96 111 102 7 67 127 133 208 317 345 2 19 38 63
175 174 168 166 171 174 166 158 163 164 160 149 145 142 140 149 179 177 174 133 107 113 119 119 113 109 106 110 104 89 101 118 85 11 51 130 153 154 323 339 351 8 35
173 174 175 176 175 172 167 164 165 166 158 157 158 154 151 163 160 153 154 159 131 116 123 125 123 120 119 138 115 89 91 109 135 141 106 77 67 95 144 267 323 349 347
175 177 176 168 164 161 165 166 166 170 166 161 162 165 165 163 153 159 172 183 178 180 135 131 132 136 142 165 151 127 111 105 106 103 104 127 128 148 141 181 260 297 309
168 169 167 167 171 167 171 172 170 173 173 167 170 176 175 171 172 176 181 175 179 202 216 166 155 158 170 170 143 128 119 116 119 125 130 132 162 166 157 152 207 267 300
166 172 176 177 183 179 176 175 176 177 177 175 179 181 177 176 183 182 180 186 195 201 198 187 175 168 166 158 148 146 156 128 142 145 142 136 185 159 155 161 162 165 322
170 176 180 181 185 184 185 183 179 178 180 182 178 178 180 178 184 188 186 191 201 199 188 184 180 174 166 171 161 149 177 149 163 181 162 152 211 158 157 146 160 164 199
173 175 177 184 193 193 189 185 183 183 180 181 182 183 187 189 188 186 191 195 199 196 184 187 189 188 181 177 165 154 202 167 205 190 155 174 220 178 165 155 150 157 176
178 181 183 186 190 184 180 181 184 180 180 184 184 180 186 189 185 191 199 198 197 192 193 194 191 188 188 188 176 187 191 190 221 230 186 224 210 194 198 165 155 156 155
174 177 179 176 177 173 174 180 183 182 186 186 184 184 187 188 188 196 202 201 201 201 200 195 194 196 196 194 192 203 204 202 212 226 218 232 218 214 231 195 204 209 192
152 153 159 169 178 178 178 181 181 184 182 176 178 182 183 188 196 200 202 199 200 205 204 197 198 201 202 200 202 204 208 212 217 220 221 228 206 216 231 220 222 229 218
153 153 164 182 188 185 182 183 187 183 175 171 174 186 195 196 199 194 195 201 201 200 203 205 206 206 205 204 205 205 211 219 226 227 225 223 214 217 221 226 222 214 206
153 158 168 187 191 188 189 189 189 183 175 172 183 198 202 198 192 190 197 200 199 206 202 201 207 206 205 209 203 208 214 214 223 233 236 229 228 230 224 224 217 204 205
172 168 163 167 181 191 194 195 194 191 178 181 195 200 193 194 199 199 197 192 195 198 191 201 206 213 226 222 210 208 208 213 216 230 241 240 239 241 238 235 224 205 201
187 185 186 191 194 192 188 193 198 190 183 189 197 199 194 198 206 203 197 198 199 195 200 209 211 223 231 225 219 219 211 217 224 227 232 244 248 241 241 238 233 231 230
194 197 199 204 204 188 179 177 174 180 188 195 202 202 198 203 207 202 204 208 201 195 202 208 210 219 239 229 224 221 207 218 231 231 227 233 246 238 226 220 229 241 250
198 199 198 191 178 176 172 152 153 170 183 198 207 208 203 203 205 210 215 211 197 200 203 198 199 211 243 240 227 212 200 224 241 241 239 231 236 247 228 211 224 245 260
168 164 158 151 160 184 159 145 164 179 203 213 217 210 200 201 207 214 216 212 197 202 198 201 205 210 230 246 234 213 193 222 247 254 253 243 240 248 225 209 216 238 252
160 142 135 146 176 179 151 155 179 215 227 221 212 203 202 203 204 204 203 189 185 183 191 202 224 225 231 243 243 213 196 207 225 240 256 259 251 248 235 224 224 237 241
154 144 138 151 186 161 155 175 214 230 219 195 196 211 213 213 193 174 183 174 167 170 187 198 237 262 256 245 249 237 223 212 206 230 245 255 259 261 262 250 248 251 253
179 151 140 139 296 209 174 194 224 203 160 148 174 203 199 196 179 174 177 173 164 174 194 197 221 260 274 267 262 251 237 226 216 235 244 251 259 273 278 274 263 254 231
191 157 141 156 233 257 226 205 203 174 148 151 172 178 166 160 150 169 180 180 186 191 202 212 227 248 264 267 258 242 235 233 228 248 272 283 281 282 283 289 279 256 225
205 180 181 210 234 248 241 208 180 157 148 158 174 178 167 161 145 141 192 198 213 206 206 217 213 219 247 256 234 205 216 223 224 178 12 3 356 345 332 325 308 289 255
219 209 210 226 248 245 233 219 189 169 165 174 185 183 172 168 163 150 54 353 254 232 213 211 210 229 238 251 230 219 215 223 182 137 182 271 269 273 283 288 301 296 257
Height
1510 1512 1514 1515 1517 1519 1520 1521 1523 1524 1526 1527 1528 1528 1529 1530 1530 1531 1531 1531 1531 1530 1530 1530 1530 1530 1530 1530 1529 1530 1530 1530 1530 1530 1531 1531 1531 1531 1531 1531 1530 1530 1530
1508 1510 1511 1513 1515 1517 1518 1520 1522 1523 1524 1526 1527 1528 1529 1529 1530 1530 1530 1530 1530 1530 1530 1530 1529 1529 1529 1529 1529 1529 1529 1529 1530 1530 1530 1531 1532 1531 1531 1531 1530 1530 1529
1505 1507 1509 1510 1512 1514 1516 1518 1520 1522 1523 1525 1526 1527 1528 1528 1529 1529 1529 1529 1529 1529 1529 1529 1529 1529 1529 1528 1528 1529 1529 1529 1529 1529 1530 1530 1530 1530 1531 1530 1530 1529 1529
1503 1505 1506 1508 1510 1512 1514 1516 1519 1520 1522 1523 1524 1525 1526 1526 1527 1527 1528 1528 1529 1529 1529 1528 1528 1528 1528 1528 1528 1528 1528 1528 1528 1528 1529 1529 1529 1529 1529 1530 1529 1529 1528
1500 1502 1504 1506 1508 1510 1513 1515 1517 1519 1520 1522 1523 1523 1524 1525 1526 1526 1527 1527 1528 1528 1528 1527 1527 1527 1527 1527 1527 1527 1527 1527 1527 1527 1527 1527 1528 1528 1528 1528 1528 1528 1528
1498 1500 1503 1505 1507 1509 1512 1513 1515 1517 1518 1520 1521 1522 1523 1523 1524 1525 1525 1526 1526 1526 1526 1526 1526 1526 1526 1526 1526 1526 1526 1526 1526 1526 1526 1526 1526 1526 1527 1526 1526 1526 1526
1496 1498 1500 1502 1505 1507 1509 1511 1513 1515 1516 1518 1519 1520 1521 1522 1522 1523 1523 1524 1524 1524 1525 1525 1525 1525 1525 1525 1525 1524 1524 1524 1524 1524 1524 1524 1525 1525 1525 1525 1525 1525 1525
1494 1496 1497 1500 1502 1504 1506 1508 1510 1512 1514 1515 1517 1518 1519 1520 1520 1521 1522 1522 1522 1523 1523 1523 1523 1523 1523 1523 1523 1523 1523 1523 1523 1523 1523 1523 1523 1523 1523 1524 1524 1523 1523
1492 1494 1495 1497 1499 1501 1503 1506 1507 1509 1511 1513 1515 1516 1517 1517 1518 1519 1520 1520 1521 1521 1521 1521 1521 1521 1521 1521 1521 1521 1521 1521 1521 1521 1521 1521 1521 1521 1522 1522 1522 1523 1521
1491 1492 1494 1495 1497 1499 1501 1503 1505 1507 1509 1511 1512 1513 1514 1515 1516 1517 1517 1518 1518 1519 1519 1519 1519 1519 1519 1519 1519 1519 1519 1519 1520 1520 1520 1520 1520 1519 1520 1520 1520 1520 1520
1490 1491 1492 1494 1495 1497 1499 1500 1502 1504 1506 1508 1509 1510 1511 1512 1513 1514 1514 1515 1516 1516 1516 1517 1517 1517 1517 1517 1517 1517 1517 1517 1517 1517 1518 1518 1518 1517 1517 1517 1517 1517 1518
1489 1490 1491 1492 1493 1495 1496 1498 1500 1501 1503 1505 1506 1507 1509 1510 1510 1511 1512 1512 1513 1513 1514 1514 1514 1514 1514 1515 1515 1514 1514 1514 1514 1515 1515 1515 1515 1515 1515 1515 1515 1515 1515
1488 1489 1490 1490 1491 1493 1494 1496 1497 1499 1500 1502 1503 1504 1505 1506 1507 1508 1509 1509 1510 1510 1511 1511 1511 1512 1512 1512 1512 1512 1511 1511 1511 1511 1512 1512 1512 1512 1512 1512 1512 1512 1512
1487 1487 1488 1489 1490 1491 1492 1493 1495 1496 1498 1499 1500 1501 1501 1502 1503 1504 1505 1506 1506 1507 1507 1508 1508 1509 1509 1509 1508 1508 1508 1508 1508 1508 1508 1508 1508 1508 1509 1509 1508 1508 1508
1485 1486 1486 1487 1488 1489 1490 1491 1492 1493 1495 1495 1496 1497 1498 1499 1500 1501 1501 1502 1503 1503 1504 1504 1505 1505 1505 1505 1505 1505 1504 1504 1504 1504 1504 1504 1505 1505 1505 1505 1505 1505 1505
1484 1484 1485 1486 1486 1487 1487 1489 1489 1490 1491 1492 1493 1494 1495 1495 1496 1497 1498 1498 1499 1499 1500 1500 1501 1501 1501 1501 1501 1501 1500 1500 1500 1500 1500 1500 1501 1501 1501 1501 1501 1502 1501
1482 1482 1483 1484 1484 1485 1485 1486 1487 1488 1488 1489 1489 1490 1491 1492 1492 1493 1494 1494 1495 1495 1496 1497 1497 1497 1497 1497 1497 1497 1497 1496 1496 1496 1496 1496 1496 1497 1497 1497 1497 1497 1497
1480 1481 1481 1482 1482 1483 1483 1484 1485 1485 1485 1486 1486 1487 1487 1488 1489 1490 1490 1490 1491 1491 1492 1492 1493 1493 1493 1493 1493 1493 1492 1492 1492 1492 1492 1492 1492 1492 1492 1493 1493 1493 1492
1478 1479 1479 1480 1481 1481 1481 1482 1482 1482 1482 1482 1483 1483 1484 1484 1485 1485 1486 1486 1487 1487 1488 1488 1488 1489 1489 1489 1489 1489 1488 1487 1487 1487 1487 1488 1488 1488 1488 1488 1488 1488 1488
1476 1477 1477 1478 1478 1479 1479 1479 1479 1479 1479 1479 1479 1480 1480 1481 1481 1482 1482 1482 1483 1483 1484 1484 1484 1484 1484 1485 1484 1484 1484 1483 1482 1482 1483 1483 1483 1483 1484 1484 1483 1483 1483
1474 1475 1475 1476 1476 1476 1476 1476 1476 1476 1476 1476 1476 1477 1477 1477 1477 1478 1478 1479 1479 1480 1480 1480 1481 1481 1481 1480 1480 1480 1480 1479 1478 1478 1478 1478 1479 1479 1479 1479 1479 1479 1479
1473 1473 1473 1473 1474 1474 1474 1473 1473 1473 1473 1473 1473 1473 1473 1473 1474 1474 1475 1475 1476 1476 1476 1476 1477 1477 1477 1476 1476 1476 1476 1475 1475 1474 1474 1474 1474 1474 1475 1475 1475 1475 1475
1471 1471 1471 1471 1471 1471 1471 1470 1470 1470 1470 1470 1470 1470 1470 1470 1470 1471 1471 1471 1472 1472 1472 1473 1473 1473 1473 1473 1472 1472 1472 1471 1471 1471 1470 1470 1470 1470 1470 1470 1470 1470 1470
1469 1469 1469 1468 1468 1468 1468 1467 1467 1467 1467 1466 1466 1466 1467 1467 1467 1467 1468 1468 1468 1468 1469 1469 1469 1469 1469 1468 1468 1468 1468 1468 1467 1467 1467 1467 1466 1466 1466 1466 1465 1465 1466
1467 1467 1467 1466 1466 1465 1465 1464 1464 1464 1464 1463 1463 1463 1463 1463 1464 1464 1465 1465 1465 1465 1465 1465 1465 1465 1465 1465 1465 1465 1464 1464 1464 1464 1463 1463 1462 1462 1461 1461 1461 1461 1461
1465 1465 1464 1464 1463 1462 1461 1461 1461 1461 1461 1460 1460 1460 1460 1460 1461 1461 1462 1462 1463 1463 1463 1463 1463 1462 1463 1462 1462 1462 1461 1461 1461 1461 1459 1459 1459 1458 1458 1458 1457 1457 1457